Regional Weather Roundup
Issued by NWS

Home | Current Version | Previous Version | Text Only | Print | Product List | Glossary On
Versions: 1 2 3 4 5 6 7 8 9 10 11 12 13 14 15 16 17 18 19 20 21 22 23 24 25 26 27 28 29 30 31 32 33 34 35 36 37 38 39 40 41 42 43 44 45 46 47 48 49
000
ASCA42 TJSJ 040310
RWRPR
PUERTO RICO/U.S. VIRGIN ISLANDS HOURLY WEATHER ROUNDUP
NATIONAL WEATHER SERVICE SAN JUAN PR
1100 PM AST MON AUG 03 2015

PRZ001-004-040400-
PUERTO RICO

CITY           SKY/WX    TMP DP  RH WIND       PRES   REMARKS
SAN JUAN LMM   PTCLDY    82  77  83 E10       30.07R HX  91
PONCE          PTCLDY    79  70  73 CALM      29.99S
$$

PRZ006-007-040400-
U.S. VIRGIN ISLANDS

CITY           SKY/WX    TMP DP  RH WIND       PRES   REMARKS
CHARLOTTE AMA  PTCLDY    84  73  70 E14       30.06R HX  91
CHRISTIANSTED  MOCLDY    82  73  74 E18G26    30.06R
$$

HOURLY WEATHER ROUNDUP FOR THE NEWS MEDIA

CITY           SKY/WX    TMP DP  RH WIND       PRES   REMARKS
ORLANDO        CLOUDY    79  73  82 SW8       30.00R
NEW YORK       PTCLDY    76  71  85 SW9       29.83S
NEWARK         PTCLDY    81  61  50 SW6       29.81S
CHICAGO        PTCLDY    70  54  56 W6        29.90R
HARTFORD       CLEAR     74  71  91 SW8       29.84S
BOSTON         PTCLDY    76  67  73 SW14      29.81R
DALLAS         PTCLDY    91  61  36 SE13      29.88R HX  91
PHILADELPHIA   PTCLDY    81  67  62 SW7       29.83S
LOS ANGELES    PTCLDY    70  62  76 SW9       29.86S
WASHINGTON DC  PTCLDY    78  63  59 S8        29.83F



USA.gov is the U.S. government's official web portal to all federal, state and local government web resources and services.